Regional Weather Roundup
Issued by NWS Glasgow, MT

Home | Current Version | Previous Version | Text Only | Print | Product List | Glossary On
Versions: 1 2 3 4 5 6 7 8 9 10 11 12 13 14 15 16 17 18 19 20 21 22 23 24 25 26 27 28 29 30 31 32 33 34 35 36 37 38 39 40 41 42 43 44 45 46 47 48 49 50
000
ASUS45 KGGW 011015
RWRGGW
HOURLY WEATHER ROUNDUP FOR NORTHEAST MONTANA
NATIONAL WEATHER SERVICE GLASGOW MONTANA
300 AM MST SUN FEB 01 2015

NOTE: "FAIR" INDICATES FEW OR NO CLOUDS BELOW 12,000 FEET WITH NO
SIGNIFICANT WEATHER AND/OR OBSTRUCTIONS TO VISISBILITY.

NORTHEAST MONTANA


CITY           SKY/WX    TMP DP  RH WIND       PRES   REMARKS
GLASGOW        PTCLDY    -2  -7  79 E6        30.45F
PLENTYWOOD       N/A     -5  -8  87 NW3         N/A
WOLF POINT     CLOUDY     2  -5  72 CALM      30.51F
JORDAN           N/A      4   0  83 CALM      30.42S
WINNETT          N/A      0  -3  87 SW3         N/A
SIDNEY         PTCLDY    -2 -11  65 N5        30.52S
GLENDIVE       PTCLDY    -6  -9  84 N5        30.44R
MALTA            N/A     -6  -8  91 SW2         N/A
SCOBEY           N/A     -6 -16  61 CALM      30.37F

FORT PECK REPORTS


CITY           SKY/WX    TMP DP  RH WIND       PRES   REMARKS
FORT PECK        N/A      1  -2  87 E3          N/A
THE PINES        N/A      2  -1  88 E2          N/A

SOUTHEAST MONTANA


CITY           SKY/WX    TMP DP  RH WIND       PRES   REMARKS
BILLINGS       FLURRIES   8   5  87 CALM      30.35R
MILES CITY     FLURRIES   2  -2  83 N3        30.42R
BAKER          LGT SNOW   1  -5  75 N7        30.36R
LIVINGSTON     CLOUDY    18  10  71 CALM      30.24R

CENTRAL MONTANA


CITY           SKY/WX    TMP DP  RH WIND       PRES   REMARKS
HAVRE          CLOUDY    -6 -10  83 CALM      30.43S
LEWISTOWN      CLOUDY     6   2  83 CALM      30.30F
GREAT FALLS    CLOUDY    -2  -5  87 S3        30.31F
CUT BANK       MOCLDY    -3  -6  87 SE5       30.27F
HELENA         FLURRIES  16  10  77 CALM      30.30F
BUTTE          PTCLDY    14  10  84 CALM      30.18S
BOZEMAN        CLOUDY    18  13  80 CALM      30.26S

WESTERN MONTANA


CITY           SKY/WX    TMP DP  RH WIND       PRES   REMARKS
MISSOULA       CLEAR     26  19  74 E9        30.25S
KALISPELL      NOT AVBL

NORTH DAKOTA


CITY           SKY/WX    TMP DP  RH WIND       PRES   REMARKS
WILLISTON      PTCLDY    -7 -13  75 N3        30.50S
DICKINSON      LGT SNOW  -4 -10  75 N8        30.36S
MINOT          PTCLDY    -9 -18  64 N9        30.50F
BISMARCK       LGT SNOW  -5 -12  72 N10       30.47S WCI -23

SOUTHERN SASKATCHEWAN


CITY           SKY/WX    TMP DP  RH WIND       PRES   REMARKS
REGINA         PTCLDY    -9 -13  84 NW2       30.50S
ESTEVAN        PTCLDY   -11 -17  77 SE3       30.50S
SWIFT CURRENT  CLEAR     -6  -9  84 SW10      30.37S WCI -23



USA.gov is the U.S. government's official web portal to all federal, state and local government web resources and services.